Regional Weather Roundup
Issued by NWS Cleveland, OH

Home | Current Version | Previous Version | Text Only | Print | Product List | Glossary Off
Versions: 1 2 3 4 5 6 7 8 9 10 11 12 13 14 15 16 17 18 19 20 21 22 23 24 25 26 27 28 29 30 31 32 33 34 35 36 37 38 39 40 41 42 43 44 45 46 47 48 49 50

000
ASUS41 KCLE 241712
RWRCLE
OHIO REGIONAL WEATHER ROUNDUP
NATIONAL WEATHER SERVICE WILMINGTON, OH
100 PM EDT SAT JUN 24 2017

NOTE: "FAIR" INDICATES FEW OR NO CLOUDS BELOW 12,000 FEET WITH NO
SIGNIFICANT WEATHER AND/OR OBSTRUCTIONS TO VISIBILITY.

OHZ001>008-015>018-024>027-034-035-043-044-241800-
   NORTHWEST OHIO

CITY           SKY/WX    TMP DP  RH WIND       PRES   REMARKS
DEFIANCE       FAIR      74  54  49 W9G17     29.93R
FINDLAY        FAIR      77  53  43 W18       29.93R
TOLEDO EXPRESS FAIR      76  54  46 W16G24    29.91R
TOLEDO EXEC    FAIR      77  56  48 W15       29.91R
LIMA           FAIR      73  58  59 W17       29.96R
$$

OHZ009>014-019>023-028>033-038-089-241800-
   NORTHEAST OHIO

CITY           SKY/WX    TMP DP  RH WIND       PRES   REMARKS
CLE-HOPKINS    PTSUNNY   76  56  49 W15G21    29.90S
CLE-LAKEFRONT  FAIR      74  59  59 W15       29.88R
CUY CO. ARPT   MOSUNNY   75  59  57 W14       29.90R
LORAIN-ELYRIA  FAIR      74  54  49 W13       29.90S
ASHTABULA      FAIR      74  58  57 W12       29.88R
AKRON-CANTON   FAIR      78  57  48 W16G23    29.91R
WOOSTER        FAIR      74  57  55 W15       29.92S
MANSFIELD      FAIR      73  56  54 W16       29.94R
YOUNGSTOWN     PTSUNNY   75  55  49 W14G22    29.89R
$$

OHZ042-051>053-060>062-070>072-077>081-241800-
  SOUTHWEST OHIO

CITY           SKY/WX    TMP DP  RH WIND       PRES   REMARKS
CINC-COVINGTON FAIR      75  58  55 W8        30.01R
CINC-LUNKEN    FAIR      76  61  59 W12       30.00R
HAMILTON       FAIR      77  62  59 VRB7      30.00R
DAYTON         FAIR      76  57  51 W14       30.00R
WRIGHT-PAT AFB PTSUNNY   74  59  57 SW10      29.97S
DAYTON GENERAL PTSUNNY   73  58  59 SW12G18   29.99R
WILMINGTON     FAIR      74  61  63 W13       29.99R
$$

OHZ036-037-039>041-045>050-054>059-063>069-073>076-082>088-241800-
  CENTRAL AND SOUTHEAST OHIO

CITY           SKY/WX    TMP DP  RH WIND       PRES   REMARKS
COLUMBUS       PTSUNNY   76  58  53 W16G23    29.94S
OSU AIRPORT    FAIR      74  60  61 W17       29.96R
BOLTON FIELD   PTSUNNY   73  59  60 W8        29.97R
RICKENBACK AFB FAIR      75  59  56 W12G18    29.96R
NEWARK         FAIR      76  56  49 W9        29.94S
MARION         FAIR      74  54  49 W13G22    29.95R
LANCASTER      PTSUNNY   73  61  65 W6        29.96S
ZANESVILLE     FAIR      77  60  55 W9G21     29.94S
NEW PHILLY     PTSUNNY   77  61  57 VRB6G17   29.92S
$$




USA.gov is the U.S. government's official web portal to all federal, state and local government web resources and services.